• In Belarus
  • List of Countries
  • For 7 days
  • Water Temperature
  • Weather Map
  • Weather Widgets
  • user-avatar
    Login

    Hourly Weather Kalgoorlie

    Today, 7 April, Tuesday

    Time Temperature Precipitation Wind Pressure Humidity
    00:00 +19°C° 0 mm 5 mps 731 mmHg 51%
    01:00 +19°C° 0 mm 6 mps 731 mmHg 49%
    02:00 +17°C° 0 mm 7 mps 731 mmHg 47%
    03:00 +17°C° 0 mm 7 mps 731 mmHg 48%
    04:00 +16°C° 0 mm 6 mps 731 mmHg 49%
    05:00 +16°C° 0 mm 6 mps 731 mmHg 50%
    06:00 +17°C° 0 mm 7 mps 732 mmHg 50%
    07:00 +18°C° 0 mm 7 mps 732 mmHg 50%
    08:00 +20°C° 0 mm 8 mps 733 mmHg 48%
    09:00 +22°C° 0 mm 7 mps 732 mmHg 43%
    10:00 +24°C° 0 mm 7 mps 732 mmHg 38%
    11:00 +27°C° 0 mm 7 mps 732 mmHg 33%
    12:00 +27°C° 0 mm 6 mps 731 mmHg 31%
    13:00 +28°C° 0 mm 6 mps 730 mmHg 30%
    14:00 +29°C° 0 mm 6 mps 729 mmHg 27%
    15:00 +29°C° 0 mm 6 mps 729 mmHg 29%
    16:00 +28°C° 0 mm 6 mps 729 mmHg 30%
    17:00 +27°C° 0 mm 6 mps 730 mmHg 31%
    18:00 +26°C° 0 mm 6 mps 730 mmHg 33%
    19:00 +25°C° 0 mm 5 mps 730 mmHg 35%
    20:00 +23°C° 0 mm 5 mps 731 mmHg 35%
    21:00 +23°C° 0 mm 5 mps 731 mmHg 38%
    22:00 +22°C° 0 mm 6 mps 731 mmHg 41%
    23:00 +21°C° 0 mm 6 mps 731 mmHg 44%

    Tomorrow, 8 April, Wednesday

    Time Temperature Precipitation Wind Pressure Humidity
    00:00 +21°C° 0 mm 6 mps 731 mmHg 45%
    01:00 +20°C° 0 mm 6 mps 730 mmHg 47%
    02:00 +20°C° 0 mm 6 mps 730 mmHg 48%
    03:00 +19°C° 0 mm 6 mps 730 mmHg 50%
    04:00 +19°C° 0 mm 5 mps 731 mmHg 52%
    05:00 +17°C° 0 mm 5 mps 731 mmHg 54%
    06:00 +19°C° 0 mm 6 mps 731 mmHg 52%
    07:00 +20°C° 0 mm 6 mps 731 mmHg 50%
    08:00 +20°C° 0 mm 7 mps 731 mmHg 49%
    09:00 +22°C° 0 mm 7 mps 731 mmHg 43%
    10:00 +24°C° 0 mm 7 mps 731 mmHg 38%
    11:00 +27°C° 0 mm 6 mps 731 mmHg 32%
    12:00 +28°C° 0 mm 5 mps 731 mmHg 30%
    13:00 +29°C° 0 mm 5 mps 730 mmHg 29%
    14:00 +30°C° 0 mm 4 mps 730 mmHg 27%
    15:00 +30°C° 0 mm 4 mps 730 mmHg 27%
    16:00 +30°C° 0 mm 3 mps 730 mmHg 27%
    17:00 +30°C° 0 mm 3 mps 730 mmHg 26%
    18:00 +28°C° 0 mm 4 mps 730 mmHg 29%
    19:00 +27°C° 0 mm 4 mps 730 mmHg 32%
    20:00 +26°C° 0 mm 5 mps 731 mmHg 34%
    21:00 +25°C° 0 mm 5 mps 731 mmHg 36%
    22:00 +24°C° 0 mm 6 mps 731 mmHg 38%
    23:00 +23°C° 0 mm 6 mps 731 mmHg 40%

    Day after tomorrow, 9 April, Thursday

    Time Temperature Precipitation Wind Pressure Humidity
    00:00 +23°C° 0 mm 6 mps 731 mmHg 41%
    01:00 +22°C° 0 mm 5 mps 731 mmHg 42%
    02:00 +22°C° 0 mm 5 mps 731 mmHg 43%
    03:00 +21°C° 0 mm 5 mps 731 mmHg 44%
    04:00 +21°C° 0 mm 4 mps 731 mmHg 45%
    05:00 +20°C° 0 mm 4 mps 731 mmHg 46%
    06:00 +21°C° 0 mm 4 mps 732 mmHg 43%
    07:00 +23°C° 0 mm 5 mps 732 mmHg 41%
    08:00 +25°C° 0 mm 5 mps 732 mmHg 38%
    09:00 +27°C° 0 mm 5 mps 732 mmHg 33%
    10:00 +29°C° 0 mm 5 mps 732 mmHg 29%
    11:00 +32°C° 0 mm 5 mps 732 mmHg 24%
    12:00 +33°C° 0 mm 4 mps 732 mmHg 22%
    13:00 +33°C° 0 mm 3 mps 731 mmHg 20%
    14:00 +34°C° 0 mm 2 mps 731 mmHg 19%
    15:00 +32°C° 0 mm 2 mps 731 mmHg 19%
    16:00 +32°C° 0 mm 2 mps 731 mmHg 19%
    17:00 +32°C° 0 mm 1 mps 731 mmHg 20%
    18:00 +31°C° 0 mm 2 mps 732 mmHg 21%
    19:00 +29°C° 0 mm 3 mps 732 mmHg 22%
    20:00 +28°C° 0 mm 3 mps 732 mmHg 23%
    21:00 +27°C° 0 mm 3 mps 732 mmHg 25%
    22:00 +27°C° 0 mm 4 mps 733 mmHg 26%
    23:00 +26°C° 0 mm 4 mps 733 mmHg 28%

    10 April, Friday

    Time Temperature Precipitation Wind Pressure Humidity
    00:00 +25°C° 0 mm 4 mps 733 mmHg 30%
    01:00 +25°C° 0 mm 4 mps 732 mmHg 32%
    02:00 +23°C° 0 mm 4 mps 732 mmHg 35%
    03:00 +23°C° 0 mm 4 mps 732 mmHg 36%
    04:00 +22°C° 0 mm 4 mps 732 mmHg 38%
    05:00 +21°C° 0 mm 4 mps 732 mmHg 39%
    06:00 +23°C° 0 mm 4 mps 733 mmHg 37%
    07:00 +25°C° 0 mm 4 mps 733 mmHg 34%
    08:00 +26°C° 0 mm 4 mps 734 mmHg 32%
    09:00 +28°C° 0 mm 4 mps 734 mmHg 28%
    10:00 +30°C° 0 mm 4 mps 734 mmHg 24%
    11:00 +33°C° 0 mm 4 mps 734 mmHg 20%
    12:00 +34°C° 0 mm 3 mps 733 mmHg 18%
    13:00 +34°C° 0 mm 2 mps 732 mmHg 17%
    14:00 +34°C° 0 mm 1 mps 732 mmHg 15%
    15:00 +34°C° 0 mm 1 mps 732 mmHg 16%
    16:00 +35°C° 0 mm 2 mps 732 mmHg 16%
    17:00 +34°C° 0 mm 2 mps 732 mmHg 16%
    18:00 +33°C° 0 mm 3 mps 732 mmHg 18%
    19:00 +30°C° 0 mm 3 mps 733 mmHg 19%
    20:00 +29°C° 0 mm 4 mps 733 mmHg 20%
    21:00 +28°C° 0 mm 4 mps 733 mmHg 21%
    22:00 +28°C° 0 mm 4 mps 733 mmHg 22%
    23:00 +27°C° 0 mm 4 mps 734 mmHg 23%

    11 April, Saturday

    Time Temperature Precipitation Wind Pressure Humidity
    00:00 +26°C° 0 mm 4 mps 733 mmHg 25%
    01:00 +26°C° 0 mm 4 mps 733 mmHg 26%
    02:00 +25°C° 0 mm 4 mps 733 mmHg 27%
    03:00 +23°C° 0 mm 4 mps 733 mmHg 28%
    04:00 +24°C° 0 mm 3 mps 733 mmHg 29%
    05:00 +22°C° 0 mm 3 mps 733 mmHg 30%
    06:00 +24°C° 0 mm 3 mps 734 mmHg 28%
    07:00 +26°C° 0 mm 3 mps 734 mmHg 27%
    08:00 +27°C° 0 mm 3 mps 734 mmHg 25%
    09:00 +29°C° 0 mm 3 mps 734 mmHg 23%
    10:00 +30°C° 0 mm 3 mps 734 mmHg 20%
    11:00 +33°C° 0 mm 4 mps 734 mmHg 18%
    12:00 +34°C° 0 mm 4 mps 733 mmHg 16%
    13:00 +35°C° 0 mm 4 mps 733 mmHg 14%
    14:00 +35°C° 0 mm 5 mps 732 mmHg 13%
    15:00 +35°C° 0 mm 4 mps 732 mmHg 13%
    16:00 +34°C° 0 mm 4 mps 732 mmHg 13%
    17:00 +34°C° 0 mm 3 mps 732 mmHg 14%
    18:00 +31°C° 0 mm 3 mps 732 mmHg 15%
    19:00 +30°C° 0 mm 3 mps 732 mmHg 16%
    20:00 +28°C° 0 mm 3 mps 732 mmHg 18%
    21:00 +28°C° 0 mm 3 mps 732 mmHg 18%
    22:00 +27°C° 0 mm 4 mps 732 mmHg 19%
    23:00 +26°C° 0 mm 4 mps 732 mmHg 20%

    12 April, Sunday

    Time Temperature Precipitation Wind Pressure Humidity
    00:00 +26°C° 0 mm 4 mps 732 mmHg 21%
    01:00 +25°C° 0 mm 4 mps 732 mmHg 22%
    02:00 +23°C° 0 mm 4 mps 731 mmHg 23%
    03:00 +23°C° 0 mm 4 mps 731 mmHg 24%
    04:00 +22°C° 0 mm 4 mps 731 mmHg 25%
    05:00 +22°C° 0 mm 4 mps 731 mmHg 25%
    06:00 +23°C° 0 mm 4 mps 731 mmHg 24%
    07:00 +25°C° 0 mm 5 mps 732 mmHg 22%
    08:00 +26°C° 0 mm 5 mps 732 mmHg 21%
    09:00 +29°C° 0 mm 5 mps 732 mmHg 18%
    10:00 +32°C° 0 mm 5 mps 732 mmHg 15%
    11:00 +34°C° 0 mm 5 mps 732 mmHg 13%
    12:00 +35°C° 0 mm 4 mps 731 mmHg 12%
    13:00 +35°C° 0 mm 3 mps 730 mmHg 12%
    14:00 +36°C° 0 mm 2 mps 730 mmHg 12%
    15:00 +35°C° 0 mm 2 mps 730 mmHg 13%
    16:00 +35°C° 0 mm 2 mps 729 mmHg 14%
    17:00 +34°C° 0 mm 2 mps 729 mmHg 15%
    18:00 +33°C° 0 mm 3 mps 730 mmHg 15%
    19:00 +31°C° 0 mm 3 mps 730 mmHg 15%
    20:00 +29°C° 0 mm 4 mps 730 mmHg 15%
    21:00 +29°C° 0 mm 4 mps 730 mmHg 15%
    22:00 +28°C° 0 mm 4 mps 730 mmHg 15%
    23:00 +27°C° 0 mm 4 mps 730 mmHg 15%
    Show more